Tracking 19827 objects as of 22-Aug-2019
HD Live streaming from Space Station
objects crossing your sky now

COSMOS 2251 DEB

Track COSMOS 2251 DEB now!
10-day predictions


NORAD ID: 37123
Int'l Code: 1993-036BGV
Perigee: 674.6 km
Apogee: 692.1 km
Inclination: 74.0 °
Period: 98.3 minutes
Semi major axis: 7054 km
RCS: 0.0141 m2 (small)
Launch date: June 16, 1993
Source: Commonwealth of Independent States (former USSR) (CIS)
Launch site: PLESETSK MISSILE AND SPACE COMPLEX (PKMTR)

Note: This is SATELLITE DEBRIS
aabbcc
Your satellite tracking list
Your tracking list is empty




NASA's NSSDC Master Catalog

Two Line Element Set (TLE):
1 37123U 93036BGV 19232.00135507 +.00001167 +00000-0 +22212-3 0  9992
2 37123 073.9949 338.5593 0012403 349.6058 132.3332 14.65264315324586
Source of the keplerian elements: AFSPC